Kosh-Dyobyo

Kyrgyzstan     41˚05′06″N   74˚15′21″E
temp.,
°C
wind,
m/s
gust,
m/s
humid.,
%
clouds,
%
prec.,
mm/h
press.,
hPa
HPBL,
m
28 november, sat
sat2800:00−5˚sse2245100 0.0 102525
03:00−5˚ssw1144100 0.0 102421
06:00−5˚sw2348100 0.0 102536
09:00−6˚wsw6983100 0.4 1028567
12:00−6˚sw6973100 1.8 1033784
15:00−6˚sw576969 1.1 1035898
18:00−10˚sw458249 1.1 1039158
21:00−11˚ssw44792 0.0 1040102
29 november, sun
sun2900:00−11˚ssw448110 0.1 104178
03:00−12˚ssw44827 0.0 104062
06:00−12˚ssw44804 0.0 104155
09:00−11˚ssw33700 0.0 104158
12:00−6˚sw24540 0.0 1038500
15:00−5˚sw24490 0.0 1035621
18:00−10˚ssw33540 0.0 103833
21:00−11˚ssw33460 0.0 103932
30 november, mon
mon3000:00−11˚ssw33470 0.0 103826
03:00−12˚ssw22490 0.0 103724
06:00−13˚s22500 0.0 103723
09:00−12˚s22490 0.0 103739
12:00−7˚e02470 0.0 1034201
15:00−6˚sw02430 0.0 1031216
18:00−10˚s224420 0.0 103332
21:00−11˚sse223888 0.0 103226
1 december, tue
tue100:00−11˚sse223989 0.0 103028
03:00−11˚sse1240100 0.0 102829
06:00−9˚s1242100 0.0 102730
09:00−8˚sw1266100 0.1 102744
12:00−6˚n1270100 0.4 1026237
15:00−6˚s1282100 0.8 1026221
18:00−7˚wsw1289100 1.6 102845
21:00−6˚ssw1294100 1.3 103073
2 december, wed
wed200:00−7˚s239495 2.4 103187
03:00−8˚s229393 0.5 103240
06:00−8˚s228896 0.7 103229
09:00−8˚s228697 0.1 103235
12:00−5˚s028099 0.1 1030181
15:00−4˚ene0280100 0.0 1028191
18:00−7˚s227597 0.0 102922
21:00−6˚ssw226694 0.0 103023